AirNav   Air Wisconsin Up To $57,000 Bonus
 
 793 users online  

OG34 Meyer Riverside Airpark
Tigard, Oregon, USA

GOING TO TIGARD?


FAA INFORMATION EFFECTIVE 07 OCTOBER 2021

Location

FAA Identifier: OG34
Lat/Long: 45-23-59.4250N 122-49-44.3540W
45-23.990417N 122-49.739233W
45.3998403,-122.8289872
(estimated)
Elevation: 252 ft. / 77 m (estimated)
Variation: 19E (1985)
From city: 3 miles SW of TIGARD, OR
Time zone: UTC -7 (UTC -8 during Standard Time)
Zip code: 97224

Airport Operations

Airport use: Private use. Permission required prior to landing
Activation date: 05/1956
Control tower: no
ARTCC: SEATTLE CENTER
FSS: MC MINNVILLE FLIGHT SERVICE STATION
Attendance: ON CALL ON CALL
Wind indicator: yes
Segmented circle: no

Airport Communications

WX ASOS at UAO (9 nm S): PHONE 503-678-3011
WX ASOS at HIO (10 nm NW): PHONE 503-615-4314
WX ASOS at PDX (15 nm NE): PHONE (503) 493-7687
WX ASOS at VUO (15 nm NE): 135.125 (360-696-1280)
WX ASOS at MMV (18 nm SW): 135.675 (503-434-9153)

Nearby radio navigation aids

VOR radial/distance  VOR name  Freq  Var
UBGr045/6.9NEWBERG VOR/DME117.4021E
BTGr185/23.1BATTLE GROUND VORTAC116.6021E

 
NDB name  Hdg/Dist  Freq  Var  ID
BANKS131/16.635616EPND .--. -. -..

Airport Services

Airframe service: NONE
Powerplant service: NONE

Runway Information

Runway 16/34

Dimensions: 1585 x 100 ft. / 483 x 30 m
Surface: turf
RUNWAY 16  RUNWAY 34
Traffic pattern: leftleft
Obstructions: plines, 10 ft. from runwaytrees, 100 ft. from runway

Airport Ownership and Management from official FAA records

Ownership: Privately-owned
Owner: JAMES MEYER
14730 SW BEEF BEND RD
TIGARD, OR 97224
Phone 503-590-6903
Manager: JAMES MEYER
14730 SW BEEF BEND RD
TIGARD, OR 97224
Phone 503-590-6903

Airport Operational Statistics

Aircraft based on the field: 2
Single engine airplanes: 1
Helicopters: 1
    

Additional Remarks

FOR CD CTC PORTLAND APCH AT 503-493-7545.

Instrument Procedures

There are no published instrument procedures at OG34.

Some nearby airports with instrument procedures:

KUAO - Aurora State Airport (9 nm S)
KHIO - Portland-Hillsboro Airport (10 nm NW)
KPDX - Portland International Airport (15 nm NE)
KVUO - Pearson Field Airport (15 nm NE)
KMMV - Mc Minnville Municipal Airport (18 nm SW)
 
Loc | Ops | Rwys | IFR | FBO | Links
Com | Nav | Svcs | Stats | Notes
Area around OG34 (Meyer Riverside Airpark)
 
Road maps at: MapQuest Bing Google
 
Aerial photo
WARNING: Photo may not be current or correct
Aerial photo of OG34 (Meyer Riverside Airpark)
Do you have a better or more recent aerial photo of Meyer Riverside Airpark that you would like to share? If so, please send us your photo.

 
Sectional chart

 
Airport distance calculator
Flying to Meyer Riverside Airpark? Find the distance to fly.

From to OG34

Sunrise and sunset
Times for 19-Oct-2021
 Local
(UTC-7)
 Zulu
(UTC)
Morning civil twilight07:0414:04
Sunrise07:3414:34
Sunset18:1901:19
Evening civil twilight18:4901:49

Current date and time
Zulu (UTC)  19-Oct-2021 11:57:43
Local (UTC-7)  19-Oct-2021 04:57:43
 
METAR
KUAO 
9nm S 
191153Z AUTO 00000KT 10SM CLR 07/06 A2992 RMK AO2 SLP130 T00670056 10100 20061 56015
KHIO 
10nm NW 
191153Z AUTO 00000KT 9SM CLR 04/03 A2991 RMK AO2 SLP128 T00390033 10078 20033 56015
KPDX 
15nm NE 
191153Z 00000KT 10SM R10R/2000V2600FT FEW002 SCT160 BKN210 06/04 A2992 RMK AO2 SLP132 T00560039 10089 20044 56015
KVUO 
15nm NE 
191153Z AUTO 00000KT 10SM CLR 06/04 A2992 RMK AO2 SLP132 T00560039 10072 20039 56016
KMMV 
18nm SW 
191153Z AUTO 00000KT 1 1/2SM BR CLR 04/04 A2990 RMK AO2 VIS 1/2V5 SLP124 T00440039 10083 20039 56016
KTTD 
20nm NE 
191153Z AUTO 00000KT CLR 04/02 A2992 RMK AO2 SLP131 T00440022 10067 20039 56015 $
TAF
KUAO 
9nm S 
190520Z 1906/2006 VRB03KT P6SM OVC050 FM191900 00000KT P6SM BKN250
KHIO 
10nm NW 
190520Z 1906/2006 VRB03KT P6SM BKN027 FM191400 VRB03KT P6SM SCT150
KPDX 
15nm NE 
190853Z 1909/2006 VRB04KT P6SM FEW006 SCT050 TEMPO 1913/1916 4SM BR SCT002 FM200300 10007KT P6SM BKN250
KTTD 
20nm NE 
190520Z 1906/2006 VRB03KT P6SM SCT250 FM191800 08006KT P6SM SCT250
NOTAMs
Click for the latest NOTAMs
NOTAMs are issued by the DoD/FAA and will open in a separate window not controlled by AirNav.

 

 
 

Would you like to see your business listed on this page?

 If your business provides an interesting product or service to pilots, flight crews, aircraft, or users of the Meyer Riverside Airpark, you should consider listing it here.  To start the listing process, click on the button below
 
Add a business
 

Other Pages about Meyer Riverside Airpark

Update a link
 
Copyright © AirNav, LLC. All rights reserved. Privacy Policy  Contact